Capt. Harry — WDC3690 — position and weather

sailwx.info

Track history (hours):
 
Tides and Currents Weather Stations Pressure Air Temp Water Temp Dewpoint Dewpoint Depression Visibility Wind Speed Wind Dir Waves Ship Positions

Capt. Harry

Owner: Wilmington Tug, Inc., New Castle, DE. More information available from US FCC via Universal Licensing System and Coast Guard Vessel Documentation Center.

Last reported at 2014-Oct-28 19:14 UTC. Time now 2014-Oct-31 09:15 UTC.
Position N 39°43' W 075°31'.

Type: Tug. MMSI: 367012530.

Date/timePositionNaut miles runAvg speedWind from/ knotsBaromVisibWave heightAir tempDewpointWater temp
2014-Oct-28 19:14N 39°43' W 075°31'1 1.0
2014-Oct-28 18:33N 39°43' W 075°32'0 0.0
2014-Oct-28 17:33N 39°43' W 075°32'0 0.0
2014-Oct-28 16:33N 39°43' W 075°32'0 0.0
2014-Oct-28 15:33N 39°43' W 075°32'0 0.0
2014-Oct-28 14:31N 39°43' W 075°32'0 0.0
2014-Oct-28 13:24N 39°43' W 075°32'0 0.0
2014-Oct-28 11:32N 39°43' W 075°32'0 0.0
2014-Oct-28 10:25N 39°43' W 075°32'0 0.0
2014-Oct-28 09:33N 39°43' W 075°32'0 0.2
2014-Oct-28 08:33N 39°43' W 075°31'1 1.1
2014-Oct-28 07:33N 39°43' W 075°30'1 1.1
2014-Oct-28 06:33N 39°43' W 075°31'0 0.2
2014-Oct-28 05:33N 39°43' W 075°31'1 0.7
2014-Oct-28 04:34N 39°42' W 075°31'1 0.7
2014-Oct-28 03:33N 39°43' W 075°31'0 0.0
2014-Oct-28 02:33N 39°43' W 075°31'0 0.0
2014-Oct-28 01:34N 39°43' W 075°31'0 0.0
2014-Oct-28 00:34N 39°43' W 075°31'0 0.0
2014-Oct-27 23:34N 39°43' W 075°31'18 1.8
2014-Oct-27 13:13N 39°53' W 075°11'0 0.0
2014-Oct-27 12:32N 39°53' W 075°11'  
2014-Oct-24 17:06N 39°47' W 075°28'4 0.3
2014-Oct-24 04:24N 39°49' W 075°24'8 9.2
2014-Oct-24 03:33N 39°43' W 075°31'0 0.0
2014-Oct-24 02:33N 39°43' W 075°31'0 0.0
2014-Oct-24 01:31N 39°43' W 075°31'0 0.0
2014-Oct-24 00:18N 39°43' W 075°31'1 0.5
2014-Oct-23 23:13N 39°43' W 075°31'0 0.3
2014-Oct-23 22:28N 39°42' W 075°31'1 0.6
2014-Oct-23 21:33N 39°43' W 075°31'0 0.0
2014-Oct-23 20:33N 39°43' W 075°31'0 0.0
2014-Oct-23 19:33N 39°43' W 075°31'0 0.0
2014-Oct-23 18:33N 39°43' W 075°31'0 0.0
2014-Oct-23 17:33N 39°43' W 075°31'0 0.0
2014-Oct-23 16:33N 39°43' W 075°31'0 0.0
2014-Oct-23 15:33N 39°43' W 075°31'0 0.0
2014-Oct-23 14:33N 39°43' W 075°31'0 0.0
2014-Oct-23 13:33N 39°43' W 075°31'0 0.1
2014-Oct-23 12:32N 39°43' W 075°31'0 0.0
2014-Oct-23 11:33N 39°43' W 075°31'0 0.0
2014-Oct-23 10:33N 39°43' W 075°31'0 0.1
2014-Oct-23 09:26N 39°43' W 075°31'0 0.1
2014-Oct-23 08:32N 39°43' W 075°31'0 0.0
2014-Oct-23 07:33N 39°43' W 075°31'9 7.0
2014-Oct-23 06:19N 39°49' W 075°23'0 0.0
2014-Oct-21 22:33N 39°49' W 075°23'10 0.3
2014-Oct-20 11:31N 39°53' W 075°11'0 0.0
2014-Oct-20 10:31N 39°53' W 075°11'  
Track history (hours):
 
Tides and Currents Weather Stations Pressure Air Temp Water Temp Dewpoint Dewpoint Depression Visibility Wind Speed Wind Dir Waves Ship Positions

Capt. Harry

Owner: Wilmington Tug, Inc., New Castle, DE. More information available from US FCC via Universal Licensing System and Coast Guard Vessel Documentation Center.

Last reported at 2014-Oct-28 19:14 UTC. Time now 2014-Oct-31 09:15 UTC.
Position N 39°43' W 075°31'.

Type: Tug. MMSI: 367012530.

Date/timePositionNaut miles runAvg speedWind from/ knotsBaromVisibWave heightAir tempDewpointWater temp
2014-Oct-28 19:14N 39°43' W 075°31'1 1.0
2014-Oct-28 18:33N 39°43' W 075°32'0 0.0
2014-Oct-28 17:33N 39°43' W 075°32'0 0.0
2014-Oct-28 16:33N 39°43' W 075°32'0 0.0
2014-Oct-28 15:33N 39°43' W 075°32'0 0.0
2014-Oct-28 14:31N 39°43' W 075°32'0 0.0
2014-Oct-28 13:24N 39°43' W 075°32'0 0.0
2014-Oct-28 11:32N 39°43' W 075°32'0 0.0
2014-Oct-28 10:25N 39°43' W 075°32'0 0.0
2014-Oct-28 09:33N 39°43' W 075°32'0 0.2
2014-Oct-28 08:33N 39°43' W 075°31'1 1.1
2014-Oct-28 07:33N 39°43' W 075°30'1 1.1
2014-Oct-28 06:33N 39°43' W 075°31'0 0.2
2014-Oct-28 05:33N 39°43' W 075°31'1 0.7
2014-Oct-28 04:34N 39°42' W 075°31'1 0.7
2014-Oct-28 03:33N 39°43' W 075°31'0 0.0
2014-Oct-28 02:33N 39°43' W 075°31'0 0.0
2014-Oct-28 01:34N 39°43' W 075°31'0 0.0
2014-Oct-28 00:34N 39°43' W 075°31'0 0.0
2014-Oct-27 23:34N 39°43' W 075°31'18 1.8
2014-Oct-27 13:13N 39°53' W 075°11'0 0.0
2014-Oct-27 12:32N 39°53' W 075°11'  
2014-Oct-24 17:06N 39°47' W 075°28'4 0.3
2014-Oct-24 04:24N 39°49' W 075°24'8 9.2
2014-Oct-24 03:33N 39°43' W 075°31'0 0.0
2014-Oct-24 02:33N 39°43' W 075°31'0 0.0
2014-Oct-24 01:31N 39°43' W 075°31'0 0.0
2014-Oct-24 00:18N 39°43' W 075°31'1 0.5
2014-Oct-23 23:13N 39°43' W 075°31'0 0.3
2014-Oct-23 22:28N 39°42' W 075°31'1 0.6
2014-Oct-23 21:33N 39°43' W 075°31'0 0.0
2014-Oct-23 20:33N 39°43' W 075°31'0 0.0
2014-Oct-23 19:33N 39°43' W 075°31'0 0.0
2014-Oct-23 18:33N 39°43' W 075°31'0 0.0
2014-Oct-23 17:33N 39°43' W 075°31'0 0.0
2014-Oct-23 16:33N 39°43' W 075°31'0 0.0
2014-Oct-23 15:33N 39°43' W 075°31'0 0.0
2014-Oct-23 14:33N 39°43' W 075°31'0 0.0
2014-Oct-23 13:33N 39°43' W 075°31'0 0.1
2014-Oct-23 12:32N 39°43' W 075°31'0 0.0
2014-Oct-23 11:33N 39°43' W 075°31'0 0.0
2014-Oct-23 10:33N 39°43' W 075°31'0 0.1
2014-Oct-23 09:26N 39°43' W 075°31'0 0.1
2014-Oct-23 08:32N 39°43' W 075°31'0 0.0
2014-Oct-23 07:33N 39°43' W 075°31'9 7.0
2014-Oct-23 06:19N 39°49' W 075°23'0 0.0
2014-Oct-21 22:33N 39°49' W 075°23'10 0.3
2014-Oct-20 11:31N 39°53' W 075°11'0 0.0
2014-Oct-20 10:31N 39°53' W 075°11'  

Dump ship's entire track history